Other Public Products
Issued by NWS Grand Forks, ND

Home | Current Version | Previous Version | Text Only | Print | Product List | Glossary On
Versions: 1 2 3 4 5 6 7 8 9 10 11 12 13 14 15 16 17 18 19 20 21 22 23 24 25 26 27 28 29 30 31 32 33 34 35 36 37 38 39 40 41 42 43 44 45 46 47 48 49 50
000
FPUS83 KFGF 290210
OPUFGF
PRAIRIE TO PINES WEATHER ROUNDUP
NATIONAL WEATHER SERVICE EASTERN NORTH DAKOTA/GRAND FORKS ND
900 PM CDT WED JUN 28 2017

 **SATELLITE DATA USED TO AUGMENT SKY COVER AT AUTOMATED STATIONS**
 *****  WEATHER ACROSS EASTERN NORTH DAKOTA  *****

CITY           SKY/WX    TMP DP  RH WIND       PRES   REMARKS
GRAND FORKS    FAIR      67  64  90 N6        29.64S
GRAND FORKS AF FAIR      65  63  93 N5        29.66R
GRAND CITY NWS NOT AVBL
BUXTON           N/A     66  65  94 N3          N/A
DEVILS LAKE    FAIR      69  58  67 NW7       29.69R
FARGO          MOCLDY    66  63  90 N10       29.64R
WAHPETON ARPT  FAIR      68  59  73 NW12      29.64R
$$

 *****  WEATHER ACROSS CENTRAL AND WESTERN NORTH DAKOTA  *****

CITY           SKY/WX    TMP DP  RH WIND       PRES   REMARKS
JAMESTOWN      FAIR      71  50  47 N8        29.69R
BISMARCK       FAIR      77  48  35 N6        29.73R
MINOT          FAIR      75  47  36 NW8       29.71R
MINOT AFB      FAIR      73  48  40 NW7       29.70R
GARRISON         N/A     71  50  47 CALM      29.73R
WILLISTON      FAIR      72  47  40 CALM      29.73R
DICKINSON      FAIR      70  44  39 E7        29.75S
HETTINGER      CLOUDY    75  35  23 E9        29.77S
$$

 *****  OTHER OBSERVATIONS NORTHEAST NORTH DAKOTA  *****

CITY           SKY/WX    TMP DP  RH WIND       PRES   REMARKS
WALHALLA       NOT AVBL
LANGDON        FAIR      70  66  88 E7        29.69R
CAVALIER       FAIR      68  63  83 N5        29.66R
GRAFTON        FAIR      64  64 100 CALM      29.68R
CANDO          NOT AVBL
FORT TOTTEN      N/A     70  55  59 NW3       29.95S
ROLLA            N/A     70  54  56 NW7       29.71S
RUGBY          NOT AVBL
 ***** THE ABOVE OBSERVATIONS ARE NON NWS ARE NOT QUALITY
        CONTROLLED AND MAY MIS-REPORT RAIN FOR SNOW...
$$

 *****  OTHER OBSERVATIONS SOUTHEAST NORTH DAKOTA *****

CITY           SKY/WX    TMP DP  RH WIND       PRES   REMARKS
COOPERSTOWN    FAIR      68  64  88 NE3       29.69R
VALLEY CITY    FAIR      68  68 100 NE6       29.69R
OAKES          NOT AVBL
GWINNER        CLOUDY    70  61  73 CALM      29.67R
SHEYENNE NWR     N/A     72  62  72 N5        29.95S
BUFFALO          N/A     68  59  74 SW5         N/A
WYNDMERE       NOT AVBL
 ***** THE ABOVE OBSERVATIONS ARE NON NWS ARE NOT QUALITY
       CONTROLLED AND MAY MIS-REPORT RAIN FOR SNOW...
$$

  *****  WEATHER ACROSS NORTHERN MINNESOTA  *****

CITY           SKY/WX    TMP DP  RH WIND       PRES   REMARKS
FLAG ISLAND    LGT RAIN  61  59  94 E7        29.63F
WARROAD        DRIZZLE   61  55  82 N5        29.66S
ROSEAU         CLOUDY    61  55  82 NE8       29.66R
HALLOCK        FAIR      64  61  88 CALM      29.65S
THF RVR FALLS  CLOUDY    60  59  96 N13       29.66R
HALSTAD        NOT AVBL
FOSSTON        MOCLDY    57  57 100 NW5       29.63S
BAUDETTE       LGT RAIN  61  61 100 N9        29.63S FOG
WASKISH        LGT RAIN  61  61 100 N8        29.62R
CROOKSTON      FAIR      63  61  94 N8        29.65S
$$
  *****  WEATHER ACROSS CENTRAL AND WEST MINNESOTA  *****

CITY           SKY/WX    TMP DP  RH WIND       PRES   REMARKS
BEMIDJI        LGT RAIN  61  60  97 N10G16    29.59S
PARK RAPIDS    CLOUDY    62  58  86 NW8       29.59R
WADENA         CLOUDY    63  61  94 NW15      29.59R
DETROIT LAKES  CLOUDY    61  59  94 NW16G22   29.64R
MOORHEAD       CLOUDY    64  61  88 N12       29.65R
FERGUS FALLS   CLOUDY    64  59  82 N14G21    29.61R
ELBOW LAKE     FAIR      66  61  84 W14       29.63R
MORRIS MN      FAIR      72  61  68 NW14      29.62R
STAPLES        CLOUDY    63  61  94 NW14G22   29.57R
WHEATON        FAIR      70  61  73 NW9       29.65R
$$
  *****  WEATHER ELSEWHERE ACROSS MINNESOTA  *****

CITY           SKY/WX    TMP DP  RH WIND       PRES   REMARKS
DULUTH         LGT RAIN  59  59 100 CALM      29.50S
INTRNTL FALLS  LGT RAIN  60  58  92 NE6       29.62R
ELY            DRIZZLE   57  57 100 NE6       29.57F
CLOQUET        CLOUDY    57  55  94 CALM      29.51S FOG
BRAINERD       CLOUDY    63  62  97 NW10      29.55R
HIBBING        CLOUDY    59  58  96 NE5       29.54S
ALEXANDRIA     CLOUDY    66  59  78 NW16      29.62R
SAINT CLOUD    CLOUDY    68  61  78 W9G21     29.54S
MINNEAPOLIS    FAIR      75  61  61 W7        29.54R
$$

  *****  WEATHER ACROSS SOUTH DAKOTA  *****

CITY           SKY/WX    TMP DP  RH WIND       PRES   REMARKS
SIOUX FALLS    FAIR      76  63  64 W6        29.66R
BROOKINGS      FAIR      73  56  54 NW9       29.67R
WATERTOWN      FAIR      70  50  49 NW8       29.67R
HURON          FAIR      73  49  42 N6        29.68R
SISSETON         N/A     71  62  73 N12       29.64R
ABERDEEN       FAIR      71  45  39 NW6       29.69R
MITCHELL       FAIR      77  53  43 N7        29.67R
PIERRE         FAIR      73  44  35 N7        29.71R
MOBRIDGE       FAIR      72  41  32 N9        29.71R
RAPID CITY     FAIR      64  52  64 NW16      29.81R
$$

  *****  SOME WEATHER IN NEARBY STATES *****

CITY           SKY/WX    TMP DP  RH WIND       PRES   REMARKS
GLASGOW MT     FAIR      75  45  34 SE14      29.69S
GREAT FALLS MT FAIR      71  32  23 W20       29.79R
CHEYENNE WY    FAIR      71  37  28 E6        29.91R
SCOTTSBLUFF NE FAIR      77  45  32 SE10      29.75S
OMAHA NE       FAIR      81  63  54 NW7       29.64S
DES MOINES IA  MOCLDY    73  64  73 S12       29.65S
DAVENPORT IA   NOT AVBL
CHICAGO IL     CLOUDY    79  60  52 S20G28    29.76S
EAU CLAIRE WI  FAIR      66  64  93 SW7       29.55F
LA CROSSE WI   HVY RAIN  71  67  87 CALM      29.62R FOG
$$

  *****  SOME NATIONAL WEATHER *****

CITY           SKY/WX    TMP DP  RH WIND       PRES   REMARKS
LA GUARDIA NY  MOCLDY    77  51  40 W13       30.10R
RALEIGH NC     FAIR      68  57  68 CALM      30.19R
ATLANTA GA     FAIR      80  65  59 SE6       30.12S
NEW ORLEANS LA CLOUDY    78  71  79 E9        29.97S
OKLAHOMA CITY  FAIR      81  65  58 S18G26    29.81S
ALBUQUERQUE NM FAIR      91   9   4 NW9       29.93R
SALT LAKE CITY FAIR      87  40  19 N15       29.81R
LOS ANGELES CA FAIR      66  61  84 W9        29.87R
BOISE ID       FAIR      82  28  14 N10       29.82S
SEATTLE WA     PTSUNNY   66  51  58 SW8       30.05S
$$

*** WEATHER ACROSS MANITOBA...SASKATCHEWAN AND ONTARIO ***
                ***ONTARIO***

CITY           SKY/WX    TMP DP  RH WIND       PRES   REMARKS
GERALDTON      MOCLDY    64  48  55 S3        29.75S
THUNDER BAY    CLOUDY    55  50  82 E14G21    29.66F
SIOUX LOOKOUT  NOT AVBL
TORONTO        CLOUDY    68  48  49 SW10      29.99S
BIG TROUT LK   CLOUDY    55  52  88 NE2       29.84S
PICKLE LAKE    MOCLDY    64  52  63 E9        29.74R
DRYDEN         CLOUDY    68  54  60 SE6       29.65R
KENORA         LGT RAIN  59  59 100 N5        29.67F
$$
                *** MANITOBA***

CITY           SKY/WX    TMP DP  RH WIND       PRES   REMARKS
BRANDON        MOCLDY    70  54  56 N8        29.68R
DAUPHIN        PTCLDY    70  59  68 SE6       29.66R
ISLAND LAKE    CLOUDY    54  52  94 E6        29.78S
PILOT MOUND      N/A     70  57  64 N7          N/A
THE PAS        MOCLDY    55  54  94 N5        29.71R
THOMPSON       LGT RAIN  52  50  93 E9        29.79S
WINNIPEG       MOCLDY    66  61  82 SE7       29.66S
LYNN LAKE      LGT RAIN  46  46 100 NE12G17   29.85S FOG
CHURCHILL      MOCLDY    46  39  76 E13       30.06R
GILLAM         MOCLDY    54  45  71 NE12G18   29.88R
$$
                ***SASKATCHEWAN***

CITY           SKY/WX    TMP DP  RH WIND       PRES   REMARKS
ESTEVAN        MOCLDY    70  48  46 N3        29.73S
KINDERSLEY     MOSUNNY   61  55  82 S5        29.75S
LLOYDMINSTER   CLOUDY    61  48  63 N15       29.78R
PRINCE ALBERT  PTSUNNY   61  52  72 NE6       29.75R
REGINA         NOT AVBL
YORKTON        CLEAR     68  50  52 NW8       29.71R


USA.gov is the U.S. government's official web portal to all federal, state and local government web resources and services.